Location: Jaboat�o
(8.1170°S, 35.0170°W)
Time: 19:52:54
(UTC-03:00)

BlueWalker 3 - Pass Details

Date: 23 June 2024
Orbit: 480 x 491 km, 53.2° (Epoch: 21 July)

Event Time Altitude Azimuth Distance (km) Brightness Sun altitude
Rises 04:36:09 0° 324° (NW) 2,527 5.4 -13.8°
Reaches altitude 10° 04:38:18 10° 323° (NW) 1,655 4.4 -13.3°
Maximum altitude 04:42:02 79° 237° (WSW) 498 1.7 -12.4°
Drops below altitude 10° 04:45:49 10° 149° (SSE) 1,676 4.7 -11.6°
Sets 04:48:00 0° 147° (SSE) 2,563 5.7 -11.1°
